Skip Page Navigation
NASA JPL Caltech
NASA Logo - Jet Propulsion Laboratory + View the NASA Portal
+ Center for Near-Earth Object Studies
JPL Home Earth Solar System Stars & Galaxies Technology
JPL Solar System Dynamics
BODIES ORBITS EPHEMERIDES TOOLS PHYSICAL DATA DISCOVERY FAQ SITE MAP
JPL Small-Body Database Browser
Search: [ help ]  
(2020 SV5)
Classification: Aten [NEO]          SPK-ID: 54054687
Ephemeris | Orbit Diagram | Orbital Elements | Mission Design | Physical Parameters | Close-Approach Data ]

[ show orbit diagram ]
Orbital Elements at Epoch 2459200.5 (2020-Dec-17.0) TDB
Reference: JPL 1 (heliocentric ecliptic J2000)
 Element Value Uncertainty (1-sigma)   Units 
e .531701771541864 0.00094643  
a .7219121471776526 0.0002175 au
q .3380701796257038 0.00078506 au
i 14.44616165288069 0.051646 deg
node 5.737540610562083 0.0026529 deg
peri 156.7639441068388 0.0043176 deg
M 9.723139583148546 0.1529 deg
tp 2459194.448974672296
(2020-Dec-10.94897467)
0.092423 TDB
period 224.0396838227936
0.61
0.10125
0.0002772
d
yr
n 1.606858186270007 0.00072617 deg/d
Q 1.105754114729602 0.00033314 au
  Orbit Determination Parameters
   # obs. used (total)      16  
   data-arc span      1 day  
   first obs. used      2020-09-26  
   last obs. used      2020-09-27  
   planetary ephem.      DE431  
   SB-pert. ephem.      SB431-N16  
   condition code      7  
   norm. resid. RMS      .46076  
   source      ORB  
   producer      Otto Matic  
   solution date      2020-Sep-27 17:42:10  

Additional Information
 Earth MOID = .00520879 au 
 Jupiter MOID = 3.87342 au 
 T_jup = 7.819 
[ show covariance matrix ]

Ephemeris | Orbit Diagram | Orbital Elements | Mission Design | Physical Parameters | Close-Approach Data ]

Physical Parameter Table
Parameter Symbol Value Units Sigma Reference Notes
absolute magnitude H 26.2   .20992 E2020-SN0 autocmod 2.8

[ show close-approach data ]
Ephemeris | Orbit Diagram | Orbital Elements | Mission Design | Physical Parameters | Close-Approach Data ]
ABOUT SSD CREDITS/AWARDS PRIVACY/COPYRIGHT GLOSSARY LINKS
FirstGov 2021-Mar-04 18:58 UT
(server date/time)  
NASA Home Page
Site Manager:   Ryan S. Park
Webmaster  Alan B. Chamberlin